Regional Weather Roundup
Issued by NWS

Home | Current Version | Previous Version | Text Only | Print | Product List | Glossary Off
Versions: 1 2 3 4 5 6 7 8 9 10 11 12 13 14 15 16 17 18 19 20 21 22 23 24 25 26 27 28 29 30 31 32 33 34 35 36 37 38 39 40 41 42 43 44 45 46 47 48 49 50

000
ASUS45 KCYS 281910
RWRWY

WYOMING REGIONAL WEATHER ROUNDUP
NATIONAL WEATHER SERVICE CHEYENNE WY
1200 PM MST FRI NOV 28 2014

NOTE:  "FAIR" INDICATES FEW OR NO CLOUDS BELOW 12,000 FEET
WITH NO SIGNIFICANT WEATHER AND/OR OBSTRUCTIONS TO VISIBILITY.

WYZ001-282000-
YELLOWSTONE NATIONAL PARK

CITY           SKY/WX    TMP DP  RH WIND       PRES   REMARKS
LK YELLOWSTONE   N/A     37  17  44 W10G24    29.89F WCI  30
W YELLOWSTONE  NOT AVBL

$$
WYZ002>013-054>058-071-098>099-282000-
NORTHERN WYOMING

CITY           SKY/WX    TMP DP  RH WIND       PRES   REMARKS
JACKSON        MOSUNNY   43  23  45 S8        29.90F
CODY           PTSUNNY   57  18  21 SW36G56   29.60F
GREYBULL       PTSUNNY   39  30  70 SE3       29.72F
WORLAND        CLOUDY    31  25  78 VRB5      29.72F WCI  26
SHERIDAN       CLOUDY    60  20  21 W22G39    29.59F
BUFFALO        PTSUNNY   57  17  21 SW5       29.65F
GILLETTE       MOSUNNY   56  26  31 SW20G28   29.65F
HULETT           N/A    N/A N/A N/A MISG        N/A
NEWCASTLE      FAIR      52  27  37 SE7       29.70F

$$
WYZ014>020-022>026-101>103-282000-
CENTRAL WYOMING

CITY           SKY/WX    TMP DP  RH WIND       PRES   REMARKS
BIG PINEY      PTSUNNY   50  18  28 MISG      29.96F
PINEDALE       CLOUDY    39  23  52 E8        29.98F WCI  34
DUBOIS         FAIR      43  14  31 NW15G28   29.87F
LANDER         PTSUNNY   61  11  14 W14       29.81F
RIVERTON       PTSUNNY   51  19  28 W26       29.80F
CASPER         CLOUDY    54  20  26 SW17G29   29.79F
DOUGLAS        CLOUDY    61  17  18 W25G39    29.76F

$$
WYZ021-027>030-104>119-282000-
SOUTHERN WYOMING

CITY           SKY/WX    TMP DP  RH WIND       PRES   REMARKS
EVANSTON       PTSUNNY   49  19  30 SW20G25   30.01F
FORT BRIDGER   FAIR      56  15  19 W21G30    30.02F
ROCK SPRINGS   PTSUNNY   50  17  27 SW6       30.00F
DIXON          FAIR      53  16  23 SW17G26   30.07F
RAWLINS        PTSUNNY   50  15  24 SW23G33   29.95F
SARATOGA       FAIR      54  12  19 SW20G26   30.00F
LARAMIE        PTSUNNY   50  13  22 SW21      29.95F
CHEYENNE       CLOUDY    57  12  17 W24G30    29.87F
TORRINGTON     PTSUNNY   63  17  17 W14G21    29.76F
PINE BLUFFS    FAIR      61  12  15 W20G25    29.85F

$$



USA.gov is the U.S. government's official web portal to all federal, state and local government web resources and services.